カタログに戻る

CUBY-4

運用中科学SSO
NORAD 69874·PAYLOAD·🇺🇸 United States

打ち上げ Jul 7, 2026 から Vandenberg Space Force Base

Loading…

次のパス (今後24時間)

TLE

最新Source: Space-Track

元期: Sep 13, 2026, 15:57 UTC

1 69874U 26156F   26256.66476403  .00000643  00000-0  70652-4 0  9998
2 69874  97.7442 155.8726 0001544 263.0744  97.0298 14.90968684 10183

AllMySatでCUBY-4をリアルタイム追跡

Download on the App Store